Location: Fluertsh�userhof
(48.7537°N, 10.3850°E)
Time: 10:38:50
(UTC+00:00)

Cosmos 1626 - Pass Details

Date: 24 January 2021
Orbit: 490 x 494 km, 82.5° (Epoch: 28 February)

Event Time Altitude Azimuth Distance (km) Brightness Sun altitude
Rises 16:42:47 0° 209° (SSW) 2,565 6.6 -6.7°
Reaches altitude 10° 16:45:00 10° 218° (SW) 1,687 5.9 -7.0°
Maximum altitude 16:48:25 35° 286° (WNW) 822 3.8 -7.5°
Drops below altitude 10° 16:51:51 10° 353° (N) 1,698 4.7 -8.1°
Sets 16:54:06 0° 3° (N) 2,585 5.5 -8.4°
